Radiation Dose at Monitoring Post of Fukushima Daini Nuclear Power Station
Date,Time,MP-1(microSv/h),MP-2(microSv/h),MP-3(microSv/h),MP-4(microSv/h),MP-5(microSv/h),MP-6(microSv/h),MP-7(microSv/h),Wind Direction,Wind Velocity(m/s),Rain
2023/11/05,00:00,0.150,0.136,0.218,0.207,0.211,0.123,0.080,north-northwest,6.2,No
2023/11/05,00:10,0.151,0.136,0.220,0.208,0.213,0.123,0.078,north-northwest,5.9,No
2023/11/05,00:20,0.149,0.137,0.218,0.208,0.209,0.123,0.079,north-northwest,6.0,No
2023/11/05,00:30,0.151,0.136,0.217,0.208,0.213,0.123,0.078,north-northwest,5.7,No
2023/11/05,00:40,0.149,0.136,0.218,0.206,0.210,0.123,0.079,north-northwest,5.4,No
2023/11/05,00:50,0.150,0.135,0.217,0.207,0.212,0.123,0.079,north-northwest,5.4,No
2023/11/05,01:00,0.150,0.135,0.220,0.207,0.209,0.123,0.078,north-northwest,5.4,No
2023/11/05,01:10,0.149,0.135,0.218,0.208,0.212,0.123,0.078,north-northwest,5.5,No
2023/11/05,01:20,0.150,0.136,0.219,0.207,0.211,0.123,0.078,north-northwest,5.0,No
2023/11/05,01:30,0.150,0.136,0.218,0.207,0.212,0.123,0.078,north-northwest,5.0,No
2023/11/05,01:40,0.149,0.136,0.218,0.206,0.209,0.123,0.078,north-northwest,5.8,No
2023/11/05,01:50,0.150,0.136,0.218,0.206,0.212,0.123,0.078,north-northwest,5.3,No
2023/11/05,02:00,0.149,0.136,0.219,0.207,0.211,0.123,0.079,north-northwest,6.0,No
2023/11/05,02:10,0.150,0.135,0.218,0.207,0.212,0.122,0.078,north-northwest,5.7,No
2023/11/05,02:20,0.149,0.135,0.218,0.207,0.211,0.123,0.077,north-northwest,5.4,No
2023/11/05,02:30,0.150,0.136,0.219,0.206,0.210,0.122,0.078,north-northwest,5.7,No
2023/11/05,02:40,0.149,0.135,0.218,0.207,0.211,0.123,0.078,north-northwest,5.2,No
2023/11/05,02:50,0.150,0.136,0.219,0.207,0.210,0.123,0.078,north-northwest,5.6,No
2023/11/05,03:00,0.149,0.135,0.218,0.207,0.212,0.122,0.077,north-northwest,5.9,No
2023/11/05,03:10,0.151,0.135,0.220,0.207,0.211,0.122,0.078,north-northwest,6.3,No
2023/11/05,03:20,0.150,0.135,0.219,0.207,0.210,0.124,0.078,north-northwest,6.0,No
2023/11/05,03:30,0.150,0.136,0.219,0.206,0.211,0.123,0.078,north-northwest,6.1,No
2023/11/05,03:40,0.149,0.135,0.218,0.207,0.211,0.123,0.078,north-northwest,6.2,No
2023/11/05,03:50,0.149,0.136,0.217,0.206,0.210,0.122,0.077,north-northwest,5.9,No
2023/11/05,04:00,0.149,0.135,0.217,0.207,0.211,0.122,0.078,north-northwest,5.3,No
2023/11/05,04:10,0.150,0.135,0.217,0.207,0.210,0.123,0.078,north-northwest,5.5,No
2023/11/05,04:20,0.148,0.135,0.220,0.207,0.211,0.123,0.078,north-northwest,5.6,No
2023/11/05,04:30,0.150,0.136,0.218,0.208,0.210,0.123,0.078,north-northwest,6.3,No
2023/11/05,04:40,0.149,0.135,0.220,0.207,0.211,0.123,0.078,north-northwest,6.4,No
2023/11/05,04:50,0.150,0.136,0.218,0.207,0.210,0.123,0.077,north-northwest,6.3,No
2023/11/05,05:00,0.149,0.136,0.219,0.206,0.210,0.123,0.078,north-northwest,5.8,No
2023/11/05,05:10,0.149,0.136,0.218,0.208,0.212,0.121,0.078,north-northwest,6.1,No
2023/11/05,05:20,0.149,0.136,0.218,0.206,0.210,0.123,0.078,north-northwest,5.8,No
2023/11/05,05:30,0.150,0.135,0.219,0.206,0.211,0.122,0.077,north-northwest,5.9,No
2023/11/05,05:40,0.149,0.136,0.218,0.205,0.211,0.122,0.079,north-northwest,6.2,No
2023/11/05,05:50,0.150,0.135,0.219,0.207,0.210,0.122,0.078,north-northwest,5.8,No
2023/11/05,06:00,0.150,0.136,0.217,0.206,0.211,0.123,0.078,north-northwest,6.0,No
2023/11/05,06:10,0.151,0.135,0.219,0.207,0.210,0.122,0.078,north-northwest,5.7,No
2023/11/05,06:20,0.148,0.135,0.217,0.206,0.211,0.122,0.078,north-northwest,5.5,No
2023/11/05,06:30,0.149,0.136,0.220,0.208,0.210,0.122,0.078,north-northwest,5.4,No
2023/11/05,06:40,0.149,0.135,0.216,0.206,0.212,0.122,0.078,north-northwest,5.6,No
2023/11/05,06:50,0.150,0.135,0.219,0.206,0.211,0.123,0.077,north-northwest,5.8,Yes
2023/11/05,07:00,0.150,0.135,0.218,0.206,0.211,0.122,0.078,north-northwest,5.8,No
2023/11/05,07:10,0.150,0.136,0.217,0.206,0.210,0.122,0.077,north-northwest,6.5,No
2023/11/05,07:20,0.149,0.135,0.219,0.206,0.212,0.123,0.078,northwest,6.1,No
2023/11/05,07:30,0.151,0.135,0.218,0.207,0.209,0.122,0.078,north-northwest,5.9,No
2023/11/05,07:40,0.149,0.135,0.218,0.206,0.212,0.122,0.077,north-northwest,6.2,No
2023/11/05,07:50,0.150,0.136,0.219,0.207,0.209,0.123,0.077,northwest,5.6,No
2023/11/05,08:00,0.149,0.135,0.218,0.205,0.211,0.122,0.078,north-northwest,5.5,No
2023/11/05,08:10,0.149,0.135,0.219,0.207,0.209,0.122,0.078,north-northwest,5.5,No
2023/11/05,08:20,0.149,0.136,0.218,0.205,0.211,0.122,0.078,north-northwest,5.7,No
2023/11/05,08:30,0.150,0.134,0.218,0.207,0.210,0.122,0.077,north-northwest,5.5,No
2023/11/05,08:40,0.149,0.135,0.217,0.205,0.212,0.122,0.078,north-northwest,4.8,No
2023/11/05,08:50,0.150,0.135,0.217,0.206,0.210,0.122,0.077,north-northwest,3.9,No
2023/11/05,09:00,0.150,0.135,0.218,0.205,0.211,0.122,0.077,north-northwest,4.4,No
2023/11/05,09:10,0.149,0.134,0.219,0.207,0.211,0.122,0.077,north-northwest,5.1,No
2023/11/05,09:20,0.150,0.135,0.217,0.206,0.209,0.122,0.077,north-northwest,5.0,No
2023/11/05,09:30,0.149,0.134,0.218,0.205,0.212,0.122,0.078,north-northwest,4.0,No
2023/11/05,09:40,0.149,0.136,0.216,0.208,0.210,0.123,0.078,north-northwest,4.7,No
2023/11/05,09:50,0.150,0.135,0.218,0.205,0.208,0.122,0.077,north-northwest,5.2,No
2023/11/05,10:00,0.149,0.134,0.217,0.205,0.211,0.122,0.078,north,4.6,No
2023/11/05,10:10,0.148,0.136,0.216,0.208,0.210,0.121,0.077,north,4.2,No
2023/11/05,10:20,0.149,0.135,0.218,0.206,0.209,0.122,0.078,north,3.6,No
2023/11/05,10:30,0.149,0.134,0.219,0.204,0.208,0.122,0.078,north-northwest,5.2,No
2023/11/05,10:40,0.147,0.135,0.217,0.206,0.212,0.122,0.077,north-northwest,5.6,No
2023/11/05,10:50,0.149,0.137,0.216,0.208,0.210,0.123,0.076,north,5.5,No
2023/11/05,11:00,0.151,0.135,0.218,0.206,0.208,0.123,0.077,north,6.1,No
2023/11/05,11:10,0.149,0.136,0.218,0.206,0.211,0.122,0.078,north,5.3,No
2023/11/05,11:20,0.149,0.134,0.217,0.207,0.212,0.123,0.077,north,4.5,No
2023/11/05,11:30,0.149,0.136,0.219,0.206,0.209,0.122,0.078,north,4.0,No
2023/11/05,11:40,0.149,0.135,0.218,0.207,0.212,0.122,0.077,north-northwest,5.4,No
2023/11/05,11:50,0.150,0.135,0.219,0.208,0.210,0.123,0.077,north-northwest,5.5,No
2023/11/05,12:00,0.149,0.136,0.218,0.205,0.210,0.122,0.077,north-northwest,6.2,No
2023/11/05,12:10,0.148,0.135,0.216,0.207,0.212,0.122,0.077,north-northwest,5.3,No
2023/11/05,12:20,0.150,0.135,0.219,0.207,0.210,0.123,0.077,north-northwest,4.3,Yes
2023/11/05,12:30,0.148,0.136,0.217,0.205,0.210,0.122,0.078,north-northwest,4.8,Yes
2023/11/05,12:40,0.151,0.134,0.219,0.206,0.211,0.123,0.077,north-northwest,5.6,Yes
2023/11/05,12:50,0.149,0.135,0.219,0.206,0.209,0.123,0.077,north-northwest,4.9,No
2023/11/05,13:00,0.149,0.135,0.219,0.206,0.212,0.122,0.078,north-northwest,4.8,No
2023/11/05,13:10,0.150,0.136,0.219,0.207,0.210,0.123,0.078,north-northwest,4.5,No
2023/11/05,13:20,0.149,0.135,0.217,0.205,0.210,0.122,0.077,north-northwest,4.1,No
2023/11/05,13:30,0.150,0.136,0.219,0.208,0.211,0.121,0.077,north-northwest,3.7,No
2023/11/05,13:40,0.149,0.135,0.218,0.206,0.209,0.123,0.078,north-northwest,3.8,No
2023/11/05,13:50,0.150,0.135,0.219,0.207,0.211,0.122,0.079,north-northwest,5.6,Yes
2023/11/05,14:00,0.150,0.136,0.219,0.206,0.210,0.122,0.077,north-northwest,4.6,Yes
2023/11/05,14:10,0.149,0.136,0.217,0.206,0.210,0.123,0.077,north-northwest,3.9,Yes
2023/11/05,14:20,0.150,0.136,0.219,0.208,0.211,0.122,0.077,north-northwest,4.0,No
2023/11/05,14:30,0.148,0.135,0.217,0.206,0.209,0.123,0.078,north-northwest,5.9,No
2023/11/05,14:40,0.150,0.135,0.218,0.208,0.211,0.122,0.078,north-northwest,5.2,No
2023/11/05,14:50,0.149,0.135,0.217,0.206,0.210,0.123,0.077,north-northwest,4.3,No
2023/11/05,15:00,0.150,0.135,0.219,0.207,0.211,0.122,0.077,north-northwest,4.4,No
2023/11/05,15:10,0.149,0.135,0.218,0.207,0.211,0.122,0.077,north-northwest,4.5,No
2023/11/05,15:20,0.149,0.135,0.218,0.206,0.211,0.123,0.077,northwest,5.3,No
2023/11/05,15:30,0.150,0.135,0.218,0.208,0.210,0.122,0.077,northwest,4.4,No
2023/11/05,15:40,0.148,0.135,0.218,0.207,0.209,0.122,0.078,north-northwest,4.9,Yes
2023/11/05,15:50,0.150,0.136,0.218,0.208,0.211,0.122,0.077,northwest,4.6,No
2023/11/05,16:00,0.149,0.135,0.218,0.207,0.209,0.123,0.077,northwest,5.1,No
2023/11/05,16:10,0.150,0.136,0.218,0.208,0.211,0.123,0.078,north-northwest,6.3,No
2023/11/05,16:20,0.148,0.135,0.218,0.205,0.209,0.123,0.077,northwest,6.4,No
2023/11/05,16:30,0.149,0.135,0.218,0.207,0.212,0.123,0.078,north-northwest,5.7,No
2023/11/05,16:40,0.149,0.135,0.218,0.205,0.209,0.122,0.077,north-northwest,5.7,No
2023/11/05,16:50,0.149,0.135,0.218,0.208,0.210,0.122,0.078,north-northwest,5.0,No
2023/11/05,17:00,0.149,0.135,0.218,0.206,0.210,0.122,0.078,north-northwest,4.8,No
2023/11/05,17:10,0.149,0.136,0.218,0.207,0.210,0.121,0.078,north-northwest,6.2,No
2023/11/05,17:20,0.149,0.135,0.219,0.205,0.209,0.123,0.077,north-northwest,5.7,No
2023/11/05,17:30,0.149,0.136,0.218,0.208,0.210,0.122,0.078,northwest,5.2,No
2023/11/05,17:40,0.149,0.135,0.220,0.205,0.211,0.122,0.077,north-northwest,5.5,No
2023/11/05,17:50,0.149,0.135,0.218,0.207,0.210,0.122,0.078,northwest,6.0,No
2023/11/05,18:00,0.149,0.135,0.218,0.205,0.211,0.122,0.078,north-northwest,5.5,No
2023/11/05,18:10,0.149,0.136,0.218,0.208,0.210,0.122,0.077,north-northwest,5.7,No
2023/11/05,18:20,0.150,0.135,0.219,0.204,0.211,0.122,0.078,north-northwest,5.8,No
2023/11/05,18:30,0.150,0.135,0.218,0.208,0.211,0.122,0.077,north-northwest,6.4,No
2023/11/05,18:40,0.150,0.135,0.218,0.206,0.210,0.123,0.077,north-northwest,6.6,No
2023/11/05,18:50,0.149,0.135,0.217,0.207,0.210,0.122,0.077,north-northwest,6.0,No
2023/11/05,19:00,0.150,0.135,0.221,0.206,0.211,0.122,0.077,north-northwest,6.9,No
2023/11/05,19:10,0.149,0.135,0.218,0.207,0.210,0.122,0.077,northwest,6.3,No
2023/11/05,19:20,0.150,0.135,0.218,0.206,0.211,0.122,0.078,northwest,5.9,No
2023/11/05,19:30,0.149,0.134,0.219,0.207,0.209,0.123,0.077,northwest,6.5,No
2023/11/05,19:40,0.150,0.135,0.217,0.207,0.212,0.122,0.077,north-northwest,6.1,No
2023/11/05,19:50,0.149,0.135,0.219,0.206,0.210,0.122,0.077,northwest,5.9,No
2023/11/05,20:00,0.149,0.136,0.218,0.206,0.212,0.122,0.078,northwest,5.7,No
2023/11/05,20:10,0.150,0.135,0.219,0.207,0.209,0.122,0.077,northwest,5.2,No
2023/11/05,20:20,0.148,0.135,0.218,0.206,0.211,0.122,0.078,north-northwest,6.2,No
2023/11/05,20:30,0.150,0.135,0.218,0.208,0.210,0.123,0.078,north-northwest,5.8,No
2023/11/05,20:40,0.149,0.135,0.220,0.206,0.211,0.123,0.077,northwest,5.8,No
2023/11/05,20:50,0.150,0.135,0.220,0.207,0.210,0.123,0.078,northwest,5.9,No
2023/11/05,21:00,0.149,0.136,0.220,0.208,0.210,0.122,0.077,northwest,4.8,No
2023/11/05,21:10,0.150,0.136,0.218,0.206,0.211,0.122,0.077,north-northwest,4.0,No
2023/11/05,21:20,0.150,0.136,0.219,0.208,0.210,0.123,0.078,north-northwest,3.5,No
2023/11/05,21:30,0.149,0.136,0.219,0.206,0.210,0.123,0.077,north-northwest,3.3,No
2023/11/05,21:40,0.149,0.136,0.220,0.207,0.211,0.123,0.078,north-northwest,3.7,No
2023/11/05,21:50,0.151,0.135,0.218,0.208,0.211,0.122,0.078,north-northwest,3.9,No
2023/11/05,22:00,0.149,0.136,0.218,0.207,0.210,0.123,0.078,north-northwest,3.7,No
2023/11/05,22:10,0.150,0.135,0.220,0.208,0.212,0.122,0.078,northwest,3.9,No
2023/11/05,22:20,0.151,0.135,0.218,0.207,0.210,0.123,0.078,northwest,3.1,No
2023/11/05,22:30,0.150,0.137,0.220,0.207,0.213,0.122,0.078,north-northwest,2.8,No
2023/11/05,22:40,0.149,0.135,0.220,0.206,0.210,0.123,0.078,northwest,2.1,No
2023/11/05,22:50,0.150,0.136,0.219,0.207,0.212,0.123,0.078,north-northwest,2.5,No
2023/11/05,23:00,0.150,0.136,0.220,0.207,0.211,0.122,0.078,north-northwest,2.7,No
2023/11/05,23:10,0.149,0.137,0.219,0.208,0.212,0.124,0.078,north-northwest,2.8,No
2023/11/05,23:20,0.150,0.135,0.220,0.208,0.211,0.123,0.079,north-northwest,3.0,No
2023/11/05,23:30,0.149,0.136,0.220,0.207,0.211,0.123,0.078,north,2.1,No
2023/11/05,23:40,0.151,0.137,0.219,0.208,0.211,0.123,0.078,north,2.5,No
2023/11/05,23:50,0.150,0.135,0.220,0.207,0.212,0.123,0.078,north-northwest,2.9,No
